STARLINK-35034 (65431 NORAD) Tracking and Keplerian Element Data

This shows tracking and keplerian element data for the satellite.

Feedback or suggestion? Click here.




ElementValue
Catalog65431
NameSTARLINK-35034
Epoch Orbit569
Epoch Day354.25003472
Epoch Year2025
RAAN245.8564
Inclination53.1577
Eccentricity0.0001332
Argument of Perigee83.6232
Mean Anonmoly75.31
Mean Motion15.39615476
Decay Rate0.00021962
L11 65431U 25192AD 25354.25003472 .00021962 00000+0 55752-3 0 9996
L22 65431 53.1577 245.8564 0001332 83.6232 75.3100 15.39615476 5699



Live tracking and technical data element details for STARLINK-35034 (NORAD 65431). STARLINK-35034 can be tracked NOW for your location showing map with azimuth and elevation plus other details from your city location.







IsCatalogInMostPopularTable: catalog: 65431, numindb: 5
Update: records affected: 1



GetName: 65431 STARLINK-35034

Hit Count: updated at: Sat, 07 Feb 2026 07:04:54 GMT